Showing default

SOLRAD 11A, 8748

Orbit data source: Space-Track

SOLRAD 11A, 8748 is a payload satellite owned by NRL (US) that was launched on Mon, 15 Mar 1976 UTC via a TITAN IIIC launch vehicle from the Air Force Eastern Test Range (AFETR). Payloads include a variety of satellites, spacecraft, and rockets equipped with specific instruments for various scientific and technological missions. These include communications satellites like Starlink; space stations such as the ISS; scientific satellites like the Hubble; Earth observation satellites from companies like Planet Labs, Umbra, and HawkEye 360; GPS; miniature CubeSats for education and research; and military/defense satellites.

Loading next visibility...
SOLRAD 11A details
Identifier
8748, 1976-023C
Orbit
Active
Last TLE update5 days ago
Origin
Flag of USNRL (US)
ManufacturerNRL
MissionCivil Science
Bus & MotorSR 11, STAR 13A
Mass171 kg wet, 171 kg dry
Launch date (UTC)
1976-03-15 (49 years ago)
Launch vehicle
TITAN IIIC
Launch site
Air Force Eastern Test Range (AFETR)
Object type
Payload
Rocket body
Debris
Shape & HBRCyl + 4 Pan, 2.5 m
Radar Cross Section2.140 m²

Expand to show TLE details & history

TLE from 5 days ago
0 SOLRAD 11A
1  8748U 76023C   25030.81484285 -.00000706  00000-0  00000+0 0  9998
2  8748  15.9762 342.3359 0101435 182.7161 350.1395  0.19674382  4468
Epoch: 2025-01-30T19:33Z
Definitive object data (Epoch: 2025-01-30T19:33:22.422Z)
Latitude2.05994°
Longitude91.69929°
Altitude117,228.291 km
Speed1.805 km/s
True Right ascension10h 21m 19s
True Declination2° 03' 33"
Sunlit
Object was in daylight at TLE epoch
Visualization TLE readout
Latitude-5.58986°
Longitude118.93978°
Altitude117,286.686 km
Speed1.804 km/s
Apparent Right ascension12h 17m 09s
Apparent Declination-7° 39' 36"
Sunlit
Object is in daylight
Visualization observer readout
Local Sidereal Time09:01:28
Azimuth124.846° SE
Elevation24.455°
Doppler factor1
Orbital elements
Apogee altitude119,761.682 km
Perigee altitude117,228.38 km
Semi-major axis124,873.168 km
Eccentricity0.0101435
Inclination15.9762°
RAAN342.3359°
Arg. of periapsis182.7161°
True anomaly349.93793°
Mean anomaly350.1395°
Eccentric anomaly350.03897°
Mean motion0.04919 °/min
BSTARUnknown
Orbital period7319.19 mins
Loading maneuver chart data...
Loading historical data...
Loading historical data...
Loading historical data...
Loading historical data...
Loading historical data...
Loading historical data...
Loading historical data...

SOLRAD 11A Visibility forecast

Observer location: undefined°, undefined

Span
Click to sort rows by Start time (UTC) header in descending order
Start Az.
Max El. time (UTC)
Max El. Az.
Max El.
End time (UTC)
End Az.
540 mins2025-02-05 06:59:12.782Z124.851° SE2025-02-05 10:38:12.782Z176.013° S32.414°2025-02-05 15:59:12.782Z242.124° WSW
|